RH
99 99 99 98 100 100 100 99 100 99 99 98 100 98 99 100 100 99 79 35 24 28 21 13 13 14 15 15 16 16 16 16 17 18 22 26 30 32
99 98 99 100 99 100 99 100 99 99 100 95 100 99 100 100 99 99 97 95 87 77 69 18 15 14 14 15 16 16 17 17 18 19 22 23 26 28
99 98 99 99 99 99 99 99 99 99 100 99 100 100 100 100 99 98 95 80 73 50 37 22 17 16 17 18 17 18 18 19 19 20 21 22 24 26
100 97 98 99 99 98 99 98 99 99 100 99 99 100 100 99 100 97 82 64 46 37 28 20 18 18 18 18 19 19 19 21 21 21 23 23 23 25
96 95 96 95 96 97 98 98 98 98 98 99 99 100 99 99 100 96 66 53 47 41 32 21 18 18 19 20 20 21 21 22 23 24 25 26 26 27
91 95 97 97 96 97 98 97 97 97 98 99 99 98 99 99 98 97 80 47 39 34 27 20 19 19 20 21 22 23 24 25 25 26 27 28 30 30
97 96 91 96 96 98 97 97 96 96 97 97 97 97 98 98 96 90 56 45 40 31 22 20 20 21 22 23 24 25 26 26 28 29 30 32 34 34
91 94 96 95 95 96 97 97 96 96 97 96 97 96 97 97 95 94 84 49 30 25 21 21 22 23 25 25 26 26 28 29 30 32 34 35 37 38
86 86 84 86 92 96 97 96 96 96 96 96 96 96 96 97 96 93 86 63 46 43 28 27 27 27 27 27 29 29 31 33 34 35 36 39 41 42
70 71 74 77 80 81 82 88 92 94 95 95 96 96 96 96 96 96 96 95 91 78 55 48 41 33 34 32 33 33 35 38 57 82 89 90 84 67
63 72 73 73 72 75 84 92 95 93 92 95 95 94 95 96 95 95 95 96 94 84 74 68 65 53 43 45 46 42 54 80 91 92 86 75 79 82
37 58 70 77 82 84 84 85 86 99 100 100 96 93 95 96 96 96 96 96 96 96 96 95 95 86 80 90 90 94 95 97 95 95 94 90 87 86
5 9 33 66 82 87 90 88 90 92 93 95 97 100 100 98 97 97 97 96 97 94 97 96 95 97 96 96 95 97 96 98 95 94 94 91 90 88
4 4 6 10 30 70 91 95 97 96 91 89 94 96 96 99 100 98 97 97 98 98 99 97 96 97 96 95 96 99 97 97 96 96 96 93 92 94
5 5 5 5 6 10 39 89 99 98 91 89 91 97 96 96 96 97 100 99 99 100 99 96 97 99 97 96 94 94 95 95 97 93 94 93 93 96
6 7 7 7 7 8 11 14 50 99 100 100 100 92 89 97 100 100 98 100 98 98 100 99 99 99 96 94 95 89 86 86 90 90 95 95 92 88
9 11 11 10 10 11 12 13 16 17 64 100 100 100 99 94 93 98 100 100 100 100 100 100 100 100 100 98 92 89 90 89 87 87 90 88 84 83
11 12 15 19 22 24 22 21 19 19 19 20 67 100 100 100 100 100 98 98 98 99 98 97 98 99 99 96 95 94 93 92 93 93 94 91 88 87
13 14 16 19 22 29 42 46 41 32 25 21 21 25 69 100 100 100 100 100 100 99 99 100 100 100 98 98 100 100 100 100 99 93 90 89 88 86
18 20 21 23 27 37 51 58 61 65 68 62 48 33 28 30 40 79 96 100 100 100 100 100 100 100 100 100 98 97 100 100 100 100 96 92 80 60
22 24 26 26 26 27 35 58 85 86 81 74 74 75 74 72 61 50 45 42 41 42 45 49 56 63 64 66 66 69 73 80 82 70 55 45 36 30
28 32 36 38 39 38 38 36 38 63 86 98 86 78 82 88 90 99 100 98 98 97 87 73 83 87 84 79 66 60 55 51 53 49 49 51 45 31
40 44 49 53 56 54 50 50 52 45 46 62 100 100 86 76 90 100 100 99 100 100 100 100 95 89 86 81 76 70 64 58 53 51 48 47 43 38
Wind_Speed
56 58 61 56 54 53 57 51 41 48 45 49 41 39 40 49 42 29 29 32 31 29 33 31 33 34 33 34 34 32 33 33 34 33 32 31 31 32
57 65 66 60 56 63 49 53 46 50 49 50 47 45 44 47 51 41 30 29 36 34 39 39 39 40 40 39 38 38 36 35 35 36 34 35 34 34
51 55 60 69 64 67 58 64 58 54 60 53 49 37 53 55 45 35 35 40 44 46 45 43 42 42 42 39 40 38 38 37 36 36 38 39 38 38
40 45 50 49 51 54 60 57 59 65 61 61 56 53 60 52 46 41 42 45 46 47 46 45 45 46 45 44 43 42 41 38 38 40 40 41 42 41
34 35 36 43 48 51 59 61 60 57 57 61 62 62 64 56 55 50 49 49 49 48 48 47 49 48 47 47 45 44 44 42 43 43 42 42 43 43
36 39 38 39 40 40 42 49 51 55 60 58 62 63 66 63 60 53 52 51 52 51 51 51 52 50 50 49 48 47 46 48 46 45 44 43 42 43
39 42 42 40 40 41 43 45 46 49 49 53 54 57 63 61 57 48 49 49 51 51 53 53 52 52 51 51 50 49 48 47 47 45 46 44 43 43
29 32 35 38 38 38 40 43 43 44 47 49 50 53 52 56 50 45 42 46 52 52 50 51 51 52 53 52 51 51 50 49 48 46 45 47 46 45
28 29 30 32 33 34 34 34 35 35 40 45 46 47 48 49 51 46 41 41 45 45 46 49 51 52 53 53 52 52 50 48 47 47 48 49 51 51
25 27 29 29 30 32 32 33 33 35 36 38 41 44 47 47 48 48 46 45 48 49 48 52 54 52 50 50 51 50 50 48 50 54 55 57 57 57
28 28 29 30 31 32 32 31 32 32 32 33 36 38 39 41 45 47 46 48 51 53 54 55 51 48 47 47 49 50 51 56 57 57 56 59 61 62
30 31 32 32 32 33 34 34 34 32 33 33 33 34 37 39 40 43 47 51 53 54 55 54 52 52 56 61 63 63 63 61 60 62 62 62 62 62
33 34 35 35 35 35 36 39 38 38 39 40 39 39 40 41 41 44 46 49 51 53 54 57 60 60 61 62 61 60 61 61 62 62 62 61 60 59
31 33 34 37 40 40 39 40 42 42 44 44 46 46 46 45 45 45 46 48 49 51 52 55 58 59 59 60 62 62 61 61 60 61 60 60 59 58
28 31 34 36 38 40 41 42 43 45 46 47 47 47 48 50 51 51 51 52 53 54 56 57 59 60 61 63 65 65 64 61 59 59 57 58 57 56
28 30 32 34 37 41 41 40 43 44 44 45 47 48 48 47 49 51 52 53 54 55 55 56 56 57 59 61 60 61 60 59 55 54 54 53 53 53
29 30 32 34 36 38 40 41 42 44 46 46 47 47 47 49 49 49 48 48 50 52 52 51 52 54 55 56 57 57 56 56 53 50 49 51 52 51
29 31 33 33 34 35 36 36 38 40 43 46 49 50 53 52 49 49 50 51 53 54 54 53 52 51 52 53 53 53 52 51 50 49 49 50 50 48
29 30 31 33 33 33 34 34 34 35 37 40 43 47 51 52 52 53 50 48 49 49 49 48 47 47 49 50 48 46 47 48 48 49 49 49 51 51
27 26 27 28 30 33 34 34 33 34 34 34 34 35 39 44 48 49 51 51 51 52 50 49 49 49 49 49 50 49 47 49 49 50 51 52 54 55
27 28 28 28 28 29 31 34 38 37 35 34 34 34 34 35 36 36 36 38 40 42 44 45 45 47 48 50 51 51 49 49 52 53 53 53 52 51
25 25 26 27 28 28 29 30 33 37 38 38 37 33 33 32 33 32 32 32 32 33 34 34 34 35 37 38 41 43 43 43 44 46 48 50 50 52
22 22 22 23 26 29 30 29 31 32 35 34 38 35 34 33 32 32 33 33 33 34 34 34 34 34 36 38 41 44 45 45 46 46 48 48 50 51
Wind_Direction
227 228 233 226 234 224 239 226 236 240 233 232 244 246 249 235 240 229 218 238 241 246 250 243 249 249 250 250 249 250 251 251 252 253 254 255 256 259
240 243 233 237 228 232 228 235 236 232 237 246 249 247 244 243 242 244 250 236 231 240 250 242 240 244 243 247 248 247 248 252 254 256 257 259 260 261
250 246 244 236 239 231 235 235 236 231 238 235 242 235 235 233 244 242 237 239 238 240 241 244 246 249 251 249 250 251 252 253 255 257 261 261 261 261
249 250 244 240 240 242 237 237 235 239 237 236 230 235 230 234 244 239 236 238 241 242 241 241 243 244 246 248 249 251 252 254 257 258 259 262 264 264
250 250 253 253 251 247 242 246 241 240 238 239 229 221 224 231 234 237 234 235 236 238 240 241 242 243 246 248 249 252 254 254 256 257 259 260 262 265
254 251 247 251 254 255 257 253 249 247 244 241 234 232 233 231 226 228 231 233 235 235 237 239 241 243 245 248 249 251 253 257 257 259 260 261 264 265
241 244 249 252 253 251 249 251 253 249 248 248 247 246 234 228 224 226 231 232 235 237 237 239 241 244 246 248 249 251 251 253 256 258 261 263 264 266
250 250 249 248 249 251 249 247 246 250 250 247 244 244 246 237 223 225 231 235 236 236 238 240 243 245 246 248 251 253 254 255 256 258 261 265 266 268
250 251 253 253 253 253 252 251 246 245 250 249 244 239 238 239 235 227 228 234 237 240 243 244 246 247 248 250 250 251 252 254 258 263 265 266 270 271
257 257 257 256 255 254 252 252 252 251 246 245 246 242 236 230 227 226 225 230 234 238 242 244 242 243 245 247 250 253 255 256 261 264 264 267 269 272
262 261 260 260 260 259 257 252 249 249 248 247 245 245 246 243 237 230 227 229 232 235 239 242 246 250 250 251 252 254 257 261 262 263 265 269 273 275
261 259 261 260 259 261 260 255 254 253 250 245 245 248 248 246 243 242 239 237 238 239 240 243 242 244 246 246 249 253 258 261 264 267 271 272 274 275
263 261 260 260 258 256 258 260 259 254 250 249 249 244 242 243 246 247 243 242 241 242 241 243 247 248 251 255 256 257 260 264 267 269 270 272 273 274
273 268 264 259 256 256 254 254 256 255 254 251 246 245 246 246 245 245 246 246 248 250 249 250 251 253 254 256 258 260 262 265 266 268 270 271 271 272
277 273 270 266 263 258 253 252 253 255 255 255 253 252 248 246 245 243 243 245 246 247 249 251 253 255 257 259 262 264 266 265 266 267 269 269 270 269
282 277 271 265 262 261 257 254 251 249 251 253 255 255 255 253 251 249 248 248 250 251 252 254 256 259 261 261 263 264 265 266 266 265 266 266 266 266
282 276 274 272 268 264 261 257 253 249 247 245 245 248 252 254 254 253 250 249 249 249 249 250 253 255 258 260 262 264 266 267 267 269 267 266 265 266
285 282 278 274 272 271 269 265 261 256 253 249 245 243 246 247 250 252 252 254 255 257 258 259 259 260 260 261 263 265 266 267 268 268 267 268 268 268
291 287 284 282 278 273 270 267 265 263 259 255 252 249 246 247 249 251 250 253 256 258 260 261 261 262 262 262 263 266 267 266 266 267 269 269 271 271
294 290 287 284 281 278 275 273 269 264 262 263 262 259 257 255 253 252 253 253 253 251 251 254 257 259 260 262 264 263 262 268 269 270 271 272 273 273
291 290 289 286 282 278 273 269 268 269 269 266 264 265 265 265 262 261 259 258 258 257 256 256 257 258 259 260 262 264 264 263 266 269 270 270 271 271
288 289 288 288 287 284 280 277 270 266 263 265 269 266 262 261 263 261 258 256 255 257 259 259 258 256 257 260 262 264 264 263 263 264 267 271 274 275
287 287 289 293 292 290 285 280 274 271 268 264 254 260 262 259 256 258 261 261 260 259 259 258 257 259 263 267 269 269 268 268 267 263 263 267 270 273